Ames, IA

3:59 AM CST on November 24, 2017 (GMT -0600)
Ames Municipal

Weather History for KAMW - October, 2012

Change the Weather History Date:

Monday, October 15, 2012

  Actual Average Record
Temperature  
Mean Temperature 51 °F 51 °F  
Max Temperature 67 °F 63 °F 84 °F (1999)
Min Temperature 35 °F 39 °F 30 °F (2002)
Degree Days  
Heating Degree Days 14 14  
Month to date heating degree days 234 175  
Since 1 July heating degree days 395 319  
Cooling Degree Days 0 0  
Month to date cooling degree days 0 10  
Year to date cooling degree days 1063 752  
Growing Degree Days 1 (Base 50)    
Moisture  
Dew Point 39 °F    
Average Humidity 65    
Maximum Humidity 92    
Minimum Humidity 37    
Precipitation  
Precipitation 0.00 in 0.08 in 0.59 in (1993)
Month to date precipitation 1.17 1.19  
Sea Level Pressure  
Sea Level Pressure 29.93 in    
Wind  
Wind Speed 4 mph (South)    
Max Wind Speed 10 mph    
Max Gust Speed 13 mph    
Visibility 10 miles    
Events      
T = Trace of Precipitation, MM = Missing Value Source: NWS Daily Summary

Daily Weather History Graph

Daily Weather History Graph

Search for Another Location

Airport or City:

Trip Planner

Search our weather history database for the weather conditions in past years. The results will help you decide how hot, cold, wet, or windy it might be!

Date:

Astronomy

Oct. 15, 2012 Rise Set
Actual Time 7:27 AM CDT 6:32 PM CDT
Civil Twilight 6:59 AM CDT 7:00 PM CDT
Nautical Twilight 6:26 AM CDT 7:32 PM CDT
Astronomical Twilight 5:54 AM CDT 8:04 PM CDT
Moon 7:39 AM CDT (10/15) 6:30 PM CDT (10/15)
Length of Visible Light 12h 00m
Length of Day
11h 04m
New Moon, 0% of the Moon is Illuminated
Oct 15
New Moon
Oct 21
First Quarter
Oct 29
Full
Nov 6
Last Quarter
Nov 13
New

Hourly Weather History & Observations

Time (CDT) Temp. Windchill Dew Point Humidity Pressure Visibility Wind Dir Wind Speed Gust Speed Precip Events Conditions
12:53 AM 39.9 °F 35.8 °F 36.0 °F 86% 29.95 in 10.0 mi West 5.8 mph - N/A   Clear
1:53 AM 41.0 °F 36.4 °F 37.0 °F 86% 29.96 in 10.0 mi West 6.9 mph - N/A   Clear
2:53 AM 37.9 °F - 35.1 °F 89% 29.96 in 10.0 mi Calm Calm - N/A   Clear
3:53 AM 36.0 °F 33.3 °F 34.0 °F 93% 29.96 in 10.0 mi WNW 3.5 mph - N/A   Clear
4:53 AM 37.0 °F 33.3 °F 34.0 °F 89% 29.97 in 10.0 mi WNW 4.6 mph - N/A   Clear
5:53 AM 37.9 °F 33.5 °F 35.1 °F 89% 29.98 in 10.0 mi West 5.8 mph - N/A   Clear
6:53 AM 37.0 °F - 34.0 °F 89% 29.98 in 10.0 mi Calm Calm - N/A   Clear
7:53 AM 36.0 °F - 34.0 °F 93% 29.99 in 10.0 mi Calm Calm - N/A   Clear
8:53 AM 43.0 °F - 37.0 °F 80% 30.00 in 10.0 mi Calm Calm - N/A   Clear
9:53 AM 50.0 °F - 39.0 °F 66% 30.00 in 10.0 mi NNW 3.5 mph - N/A   Clear
10:53 AM 55.0 °F - 39.9 °F 57% 30.00 in 10.0 mi Calm Calm - N/A   Clear
11:53 AM 59.0 °F - 39.9 °F 49% 30.00 in 10.0 mi Calm Calm - N/A   Clear
12:53 PM 61.0 °F - 41.0 °F 48% 29.98 in 10.0 mi Calm Calm - N/A   Clear
1:53 PM 63.0 °F - 39.9 °F 43% 29.95 in 10.0 mi Calm Calm - N/A   Clear
2:53 PM 64.9 °F - 39.9 °F 40% 29.92 in 10.0 mi SE 3.5 mph - N/A   Clear
3:53 PM 66.9 °F - 39.9 °F 37% 29.91 in 10.0 mi SSE 5.8 mph - N/A   Clear
4:53 PM 66.0 °F - 39.9 °F 38% 29.89 in 10.0 mi SSE 8.1 mph - N/A   Clear
5:53 PM 63.0 °F - 42.1 °F 46% 29.88 in 10.0 mi SE 5.8 mph - N/A   Clear
6:53 PM 59.0 °F - 43.0 °F 55% 29.87 in 10.0 mi SE 4.6 mph - N/A   Clear
7:53 PM 55.9 °F - 43.0 °F 62% 29.87 in 10.0 mi SE 5.8 mph - N/A   Clear
8:53 PM 53.1 °F - 43.0 °F 69% 29.86 in 10.0 mi SE 4.6 mph - N/A   Clear
9:53 PM 52.0 °F - 42.1 °F 69% 29.86 in 10.0 mi SSE 4.6 mph - N/A   Clear
10:53 PM 52.0 °F - 43.0 °F 71% 29.85 in 10.0 mi SE 5.8 mph - N/A   Clear
11:53 PM 50.0 °F - 43.0 °F 77% 29.83 in 10.0 mi SE 5.8 mph - N/A   Clear